Flag for Canada Weather past 2 weeks in Longueuil, Quebec, Canada

Now
49 °F

Cool.


Feels Like: 47 °F
Forecast: 41 / 48 °F
Wind: 5 mph from Northeast

Location: Mc Tavish

Current Time: Oct 22, 2014 at 8:59:25 PM

Latest Report: Oct 22, 2014 at 8:00 PM


Visibility: N/A

Pressure: 30.22 "Hg

Humidity: 58%

Dew point: 35 °F

Location of LongueuilLocation

Historic Weather in Longueuil — Graph

°F

Longueuil temperature yesterday

Maximum temperature yesterday: 46 °F (at 10:00 PM)
Minimum temperature yesterday: 43 °F (at 8:00 AM)
Average temperature yesterday: 44 °F

Past Weeks' High & Low Weather Summary

 TemperatureHumidityPressure
High75 °F (Oct 14, 4:00 PM)100% (Oct 8, 6:00 AM)30.29 "Hg (Oct 8, 6:00 AM)
Low37 °F (Oct 20, 6:00 AM)44% (Oct 12, 3:00 PM)29.44 "Hg (Oct 18, 2:00 PM)
Average53 °F72%29.91 "Hg
* Reported Oct 7 7:00 PM — Oct 22 7:00 PM, Longueuil, Weather by CustomWeather, © 2014

Note: Actual official high and low records may vary slightly from our data, if they occured in-between our weather recording intervals... More about our weather records

Advertising

Longueuil weather history for previous 24 hours

 ConditionsComfort  
Time TempWeatherWind HumidityBarometerVisibility
7:00 PM
Oct 22
50 °FCool.5 mph55%30.24 "HgN/A
6:00 PM51 °FCool.5 mph56%30.23 "HgN/A
5:00 PM53 °FCool.5 mph56%30.23 "HgN/A
4:00 PM53 °FCool.5 mph58%30.22 "HgN/A
3:00 PM53 °FCool.3 mph61%30.22 "HgN/A
2:00 PM52 °FCool.6 mph60%30.25 "HgN/A
1:00 PM50 °FCool.5 mph62%30.27 "HgN/A
12:00 PM48 °FCool.5 mph64%30.29 "HgN/A
11:00 AM47 °FCool.5 mph66%30.28 "HgN/A
10:00 AM45 °FQuite cool.6 mph72%30.28 "HgN/A
9:00 AM44 °FQuite cool.5 mph71%30.27 "HgN/A
8:00 AM45 °FQuite cool.5 mph64%30.26 "HgN/A
7:00 AM45 °FCool.5 mph63%30.23 "HgN/A
6:00 AM45 °FQuite cool.3 mph64%30.21 "HgN/A
5:00 AM45 °FQuite cool.3 mph66%30.20 "HgN/A
4:00 AM45 °FQuite cool.2 mph66%30.18 "HgN/A
3:00 AM45 °FQuite cool.3 mph69%30.17 "HgN/A
2:00 AM45 °FQuite cool.3 mph71%30.18 "HgN/A
1:00 AM45 °FCool.5 mph68%30.18 "HgN/A
12:00 AM45 °FCool.5 mph68%30.18 "HgN/A
11:00 PM
Oct 21
45 °FCool.3 mph73%30.17 "HgN/A
10:00 PM46 °FCool.5 mph73%30.15 "HgN/A
9:00 PM45 °FCool.5 mph77%30.14 "HgN/A
8:00 PM45 °FQuite cool.6 mph78%30.12 "HgN/A
Weather by CustomWeather, © 2014

See weather overviewHow to use our weather pages